Location: Holcomb Observatory
(44.4922°N, 73.1654°W)
Time: 09:31:20
(UTC-05:00)

Daily predictions for brighter satellites

Satellite Brightness Start Highest point End
(mag) Time Altitude Azimuth Time Altitude Azimuth Time Altitude Azimuth
Cosmos 2082 Rocket 3.6 16:40:25 10° N 16:44:04 17° NE 16:47:44 10° E
SL-27 R/B 3.1 16:41:03 10° N 16:44:31 37° ENE 16:47:55 10° SE
Cosmos 1833 Rocket 4.2 16:42:27 10° N 16:45:45 16° NE 16:49:02 10° ENE
Okean 1 Rocket 4.0 16:49:47 10° NNW 16:54:00 51° W 16:58:12 10° S
SL-16 R/B 4.4 16:49:11 10° N 16:54:10 27° WNW 16:59:10 10° WSW
Cosmos 1484 Rocket 4.1 16:52:48 10° ESE 16:55:21 18° ENE 16:57:54 10° NNE
Cosmos 1633 3.9 16:53:26 10° NNW 16:56:52 44° W 17:00:17 10° SSW
Cosmos 1544 Rocket 3.9 16:54:23 10° N 16:58:42 46° ENE 17:03:00 10° SSE
COSMO-SKYMED 1 4.1 16:57:32 10° NE 17:00:28 17° E 17:03:21 10° SE
Cosmos 1975 Rocket 3.0 16:59:46 10° S 17:04:05 89° ESE 17:08:26 10° N
Cosmos 1500 4.5 17:01:57 10° NNE 17:04:52 20° ENE 17:07:47 10° ESE
Cosmos 2263 Rocket 3.8 17:02:03 10° WSW 17:06:56 29° NW 17:11:51 10° N
BREEZE-M DEB (TANK) 4.1 16:59:24 10° W 17:09:09 51° NNW 17:12:58 13° ENE
PAYLOAD A 4.1 17:06:51 10° S 17:11:39 76° WSW 17:16:40 10° NNW
GEOS 3 Rocket 4.0 17:14:34 10° ESE 17:19:17 39° NE 17:24:01 10° NNW
Cosmos 1536 Rocket 4.0 17:16:31 10° SSE 17:20:43 43° E 17:24:58 10° NNE
USA 234 3.3 17:16:31 11° NE 17:22:48 82° NW 17:29:20 10° WSW
SJ-7 4.4 17:18:36 10° SSE 17:22:50 82° ENE 17:27:06 10° N
Tiangong 1 3.5 17:23:16 10° S 17:24:20 11° SSE 17:25:25 10° SE
SPOT 3 Rocket 3.7 17:20:32 10° SSE 17:25:43 82° WSW 17:30:56 10° NNW
Okean 1 3.7 17:23:59 10° SSE 17:27:49 43° E 17:31:41 10° NNE
YAOGAN 1 2.6 17:24:24 10° SSE 17:28:43 82° WSW 17:33:05 10° NNW
Meteor 1-18 Rocket 4.2 17:23:21 10° S 17:28:55 65° E 17:34:37 10° NNE
Cosmos 1844 Rocket 2.9 17:26:23 10° SSW 17:31:58 72° WNW 17:37:37 10° NNE
Cosmos 1812 2.6 17:28:19 10° S 17:32:09 69° E 17:36:01 10° NNE
CZ-4 R/B 4.4 17:29:11 10° SSE 17:33:20 84° ENE 17:37:30 10° NNW
BREEZE M DEB (TANK) 3.9 17:24:55 10° SSW 17:33:24 34° SSE 17:35:33 20° E
COSMOS 2487 3.1 17:32:28 10° N 17:35:48 34° ENE 17:38:37 13° SE
CZ-3A R/B 4.4 17:18:19 10° WSW 17:37:24 55° NNW 17:41:45 17° NE
EP 2 4.4 17:35:20 10° SSW 17:37:52 54° ESE 17:38:30 40° ENE
Cosmos 921 Rocket 4.4 17:35:02 10° SE 17:37:43 20° ESE 17:37:43 20° ESE
USA 32 4.3 17:33:36 10° S 17:38:48 74° W 17:44:03 10° N
SL-8 Rocket 4.4 17:32:51 10° NNW 17:38:58 65° W 17:45:02 10° S
NOSS 3-3 (A) 4.1 17:33:14 10° SSW 17:39:15 57° ESE 17:44:01 19° NE
NOSS 3-3 (C) 4.1 17:33:21 10° SSW 17:39:21 57° ESE 17:44:05 19° NE
FALCON 9 R/B 4.5 17:12:09 10° WSW 17:39:38 47° S 17:46:24 14° ESE
ISS -2.7 17:37:39 10° W 17:40:51 47° NNW 17:42:12 28° NE
Cosmos 1346 Rocket 3.1 17:40:08 10° SSE 17:43:49 41° E 17:45:21 28° NE
ASTRO F (AKARI) 4.1 17:43:38 18° NNE 17:45:53 89° ENE 17:49:01 10° SSW
IDEFIX/ARIANE 42P 3.3 17:41:13 10° S 17:46:19 57° W 17:51:27 10° NNW
ATLAS 2AS CENTAUR R/B 3.4 17:38:25 10° NW 17:46:27 69° WSW 17:53:56 10° SSE
Cosmos 494 Rocket 4.2 17:41:14 10° NNW 17:46:28 73° WSW 17:51:42 10° SSE
Cosmos 1455 Rocket 3.4 17:43:47 10° NNW 17:48:11 67° W 17:52:33 10° S
Cosmos 1844 3.9 17:43:10 10° SSW 17:48:43 71° WNW 17:54:04 11° NNE
SKYMED 2 3.6 17:45:30 16° NNE 17:48:51 54° E 17:53:05 10° S
Cosmos 2366 rocket 4.3 17:43:53 10° NNW 17:50:14 74° W 17:56:30 10° S
Cosmos 2297 4.2 17:45:54 10° S 17:51:01 37° ESE 17:53:06 28° ENE
Okean 1-7 Rocket 4.1 17:49:58 10° SSE 17:54:06 36° E 17:54:42 34° ENE
CZ-3B DEB 2.4 17:51:58 10° SW 17:55:58 86° NNW 18:02:17 22° NE
MSX 4.2 17:53:17 10° S 17:59:00 68° WSW 18:04:46 10° NNW
Cosmos 1934 Rocket 4.4 17:54:05 10° N 17:59:45 36° ENE 18:05:26 10° SE
Thor Agena Rocket 4.4 17:55:48 10° N 18:00:48 49° WNW 18:05:50 10° SW
Cosmos 1809 Rocket 4.3 17:55:32 10° N 18:01:43 80° E 18:07:51 10° S
CZ-4 R/B 4.0 18:00:01 10° SSW 18:03:25 24° W 18:06:48 10° NW
SL-24 DEB 4.4 17:58:58 10° N 18:03:44 77° W 18:08:25 10° SSW
Abrixas 3.0 18:01:09 10° WNW 18:03:36 46° NNW 18:03:36 46° NNW
Cosmos 2278 Rocket 2.2 17:59:32 10° SSW 18:05:11 84° WNW 18:09:21 19° NNE
Cosmos 1238 Rocket 4.1 18:05:42 10° SW 18:08:18 28° WNW 18:11:02 10° NNW
Timation 2 Rocket 4.1 18:02:45 10° NNW 18:09:34 73° ENE 18:16:27 10° SSE
BREEZE-M R/B 4.0 18:00:05 10° WSW 18:10:18 81° SSE 18:12:19 41° ENE
Cosmos 1975 3.6 18:06:31 10° NNW 18:10:32 54° W 18:14:28 10° S
CZ-2C R/B 4.3 18:06:09 10° SSW 18:10:36 32° W 18:15:11 10° NNW
Meteor 1-19 Rocket 4.3 18:09:39 10° S 18:15:17 57° E 18:18:27 26° NNE
Cosmos 2239 Rocket 4.4 18:09:23 10° N 18:15:33 60° E 18:21:37 10° SSE
Genesis I 3.6 18:17:55 10° NW 18:21:49 62° WSW 18:23:19 34° S
Cosmos 1821 Rocket 3.8 18:19:02 10° N 18:25:09 68° E 18:31:11 10° SSE
NOAA 12 3.9 18:20:55 10° SSE 18:26:12 83° ENE 18:31:29 10° NNW
DMSP B5D1-3 4.5 18:25:25 21° NNE 18:28:56 84° WNW 18:34:04 10° SSW
Cosmos 2082 Rocket 2.1 18:23:20 10° NNW 18:29:02 86° ENE 18:33:41 16° SSE
Cosmos 1484 Rocket 4.3 18:26:08 10° SSW 18:29:35 35° W 18:33:02 10° NNW
TIMED 4.4 18:25:49 10° SSW 18:30:00 78° SSE 18:30:00 78° SSE
SL-8 R/B 3.5 18:25:42 10° WSW 18:30:29 88° NNW 18:30:50 77° ENE
Cosmos 1833 Rocket 2.5 18:25:01 10° NNW 18:30:41 77° ENE 18:33:05 36° SE
Meteor 1-13 Rocket 4.2 18:26:55 10° S 18:32:36 86° W 18:37:11 17° N
METEOR-M 4.0 18:28:59 10° SSE 18:34:19 83° ENE 18:39:41 10° NNW
COSMO-SKYMED 1 3.5 18:34:05 19° N 18:36:51 46° WNW 18:41:00 10° SW
Meteor 1-28 Rocket 4.3 18:45:29 43° SW 18:45:29 43° SW 18:48:18 10° SSW
Nadezhda 3 Rocket 4.5 18:43:37 10° SSW 18:49:42 59° WNW 18:55:55 10° N
Timation 1 Rocket 4.2 18:48:58 10° SSW 18:54:55 87° WNW 18:55:27 76° NNE
Meteor 2-4 Rocket 3.8 18:54:07 10° S 18:58:30 60° SSW 18:58:30 60° SSW
Tiangong 1 4.5 18:57:11 10° SW 18:57:12 10° SW 18:57:12 10° SW
USA 234 4.1 19:03:52 34° N 19:05:19 37° NNW 19:11:13 10° W
ATLAS 3B CENTAUR R/B 4.4 19:01:13 10° WSW 19:13:08 27° SSW 19:15:58 22° S
BREEZE M DEB (TANK) 3.9 19:16:57 10° WNW 19:21:24 82° SSW 19:21:54 77° SSE
NOSS 3-4 (A) 3.7 19:15:14 10° NW 19:21:59 83° WNW 19:21:59 83° WNW
NOSS 3-4 (C) 3.7 19:15:20 10° NW 19:22:02 82° WNW 19:22:02 82° WNW
Cosmos 2278 Rocket 4.5 19:46:35 10° W 19:50:10 17° NW 19:51:13 16° NNW
CZ-3B DEB 4.3 20:25:49 10° WNW 20:30:54 44° NNW 20:30:54 44° NNW
